| time (UTC) | temp F | wind direction | speed MPH | gust MPH | rain 1hr in | rain 24hr in | rain mn in | humidity % | barometer mb |
| 20260903093225 | 62 | 111 | 1.0 | 2.0 | 0.00 | 0.00 | 0.00 | 80 | 1014.7 |
| 20260903091425 | 62 | 113 | 1.0 | 4.0 | 0.00 | 0.00 | 0.00 | 80 | 1014.8 |
| 20260903085626 | 62 | 125 | 1.0 | 3.0 | 0.00 | 0.00 | 0.00 | 78 | 1014.9 |
| 20260903084725 | 62 | 123 | 1.0 | 3.0 | 0.00 | 0.00 | 0.00 | 77 | 1014.9 |
| 20260903083826 | 62 | 0 | 0.0 | 3.0 | 0.00 | 0.00 | 0.00 | 77 | 1014.8 |
| 20260903081126 | 63 | 111 | 0.0 | 3.0 | 0.00 | 0.00 | 0.00 | 75 | 1014.8 |
| 20260903080226 | 63 | 111 | 1.0 | 4.0 | 0.00 | 0.00 | 0.00 | 74 | 1014.6 |
| 20260903075327 | 63 | 109 | 1.0 | 4.0 | 0.00 | 0.00 | 0.00 | 73 | 1014.6 |
| 20260903074425 | 63 | 0 | 0.0 | 2.0 | 0.00 | 0.00 | 0.00 | 72 | 1014.5 |
| 20260903073525 | 64 | 0 | 0.0 | 2.0 | 0.00 | 0.00 | 0.00 | 72 | 1014.6 |
| 20260903072626 | 64 | 0 | 0.0 | 1.0 | 0.00 | 0.00 | 0.00 | 71 | 1014.5 |
| 20260903071726 | 64 | 0 | 0.0 | 1.0 | 0.00 | 0.00 | 0.00 | 70 | 1014.3 |
| 20260903070826 | 65 | 0 | 0.0 | 2.0 | 0.00 | 0.00 | 0.00 | 69 | 1014.4 |
| 20260903065926 | 65 | 0 | 0.0 | 3.0 | 0.00 | 0.00 | 0.00 | 69 | 1014.4 |
| 20260903065025 | 65 | 0 | 0.0 | 1.0 | 0.00 | 0.00 | 0.00 | 69 | 1014.3 |
| 20260903062326 | 66 | 0 | 0.0 | 1.0 | 0.00 | 0.00 | 0.00 | 67 | 1014.3 |
| 20260903061426 | 66 | 0 | 0.0 | 2.0 | 0.00 | 0.00 | 0.00 | 67 | 1014.3 |
| 20260903060526 | 67 | 0 | 0.0 | 2.0 | 0.00 | 0.00 | 0.00 | 66 | 1014.4 |
| 20260903055625 | 67 | 0 | 0.0 | 1.0 | 0.00 | 0.00 | 0.00 | 66 | 1014.4 |
| 20260903054734 | 67 | 0 | 0.0 | 0.0 | 0.00 | 0.00 | 0.00 | 66 | 1014.4 |
| 20260903053826 | 68 | 0 | 0.0 | 1.0 | 0.00 | 0.00 | 0.00 | 65 | 1014.5 |
| 20260903052926 | 68 | 0 | 0.0 | 2.0 | 0.00 | 0.00 | 0.00 | 64 | 1014.5 |
| 20260903050226 | 69 | 0 | 0.0 | 3.0 | 0.00 | 0.00 | 0.00 | 63 | 1014.5 |
| 20260903045326 | 69 | 147 | 0.0 | 1.0 | 0.00 | 0.00 | 0.00 | 64 | 1014.5 |
| 20260903044426 | 70 | 214 | 1.0 | 3.0 | 0.00 | 0.00 | 0.00 | 63 | 1014.6 |
| 20260903042626 | 70 | 0 | 0.0 | 1.0 | 0.00 | 0.00 | 0.00 | 62 | 1014.5 |
| 20260903041726 | 70 | 0 | 0.0 | 1.0 | 0.00 | 0.00 | 0.00 | 61 | 1014.4 |
| 20260903035026 | 71 | 0 | 0.0 | 1.0 | 0.00 | 0.00 | 0.00 | 60 | 1014.2 |
| 20260903033226 | 71 | 202 | 0.0 | 1.0 | 0.00 | 0.00 | 0.00 | 59 | 1013.9 |
| 20260903032326 | 72 | 221 | 0.0 | 2.0 | 0.00 | 0.00 | 0.00 | 57 | 1013.8 |
| 20260903031426 | 72 | 0 | 0.0 | 2.0 | 0.00 | 0.00 | 0.00 | 56 | 1013.7 |
| 20260903030526 | 72 | 0 | 0.0 | 2.0 | 0.00 | 0.00 | 0.00 | 56 | 1013.8 |
| 20260903025626 | 72 | 0 | 0.0 | 3.0 | 0.00 | 0.00 | 0.00 | 56 | 1013.8 |
| 20260903024726 | 73 | 197 | 0.0 | 3.0 | 0.00 | 0.00 | 0.00 | 57 | 1013.9 |
| 20260903023826 | 73 | 217 | 1.0 | 2.0 | 0.00 | 0.00 | 0.00 | 58 | 1014.0 |
| 20260903022925 | 74 | 217 | 1.0 | 2.0 | 0.00 | 0.00 | 0.00 | 58 | 1014.0 |
| 20260903021126 | 74 | 213 | 2.0 | 6.0 | 0.00 | 0.00 | 0.00 | 57 | 1013.9 |
| 20260903015326 | 75 | 209 | 2.0 | 4.0 | 0.00 | 0.00 | 0.00 | 56 | 1013.8 |
| 20260903014426 | 76 | 192 | 1.0 | 4.0 | 0.00 | 0.00 | 0.00 | 56 | 1014.0 |
| 20260903013526 | 76 | 210 | 2.0 | 5.0 | 0.00 | 0.00 | 0.00 | 55 | 1014.2 |
| 20260903012626 | 76 | 215 | 2.0 | 6.0 | 0.00 | 0.00 | 0.00 | 56 | 1014.2 |
| 20260903011726 | 77 | 214 | 2.0 | 5.0 | 0.00 | 0.00 | 0.00 | 56 | 1014.2 |
| 20260903010826 | 77 | 193 | 1.0 | 6.0 | 0.00 | 0.00 | 0.00 | 55 | 1014.1 |
| 20260903004126 | 78 | 216 | 2.0 | 8.0 | 0.00 | 0.00 | 0.00 | 55 | 1014.4 |
| 20260903003226 | 78 | 190 | 2.0 | 6.0 | 0.00 | 0.00 | 0.00 | 54 | 1014.3 |
| 20260903002326 | 79 | 198 | 2.0 | 4.0 | 0.00 | 0.00 | 0.00 | 53 | 1014.4 |
| 20260903000526 | 79 | 221 | 2.0 | 5.0 | 0.00 | 0.00 | 0.00 | 53 | 1014.6 |
| 20260902235626 | 79 | 163 | 2.0 | 5.0 | 0.00 | 0.00 | 0.00 | 54 | 1014.6 |
| 20260902233826 | 79 | 219 | 2.0 | 5.0 | 0.00 | 0.00 | 0.00 | 53 | 1014.6 |
| 20260902232026 | 78 | 216 | 3.0 | 6.0 | 0.00 | 0.00 | 0.00 | 55 | 1014.8 |
| 20260902231126 | 79 | 225 | 2.0 | 9.0 | 0.00 | 0.00 | 0.00 | 53 | 1014.9 |
| 20260902230226 | 79 | 217 | 2.0 | 5.0 | 0.00 | 0.00 | 0.00 | 54 | 1014.9 |
| 20260902225326 | 79 | 220 | 3.0 | 7.0 | 0.00 | 0.00 | 0.00 | 54 | 1015.0 |
| 20260902224426 | 79 | 223 | 2.0 | 10.0 | 0.00 | 0.00 | 0.00 | 54 | 1015.1 |
| 20260902223526 | 80 | 219 | 2.0 | 8.0 | 0.00 | 0.00 | 0.00 | 53 | 1015.1 |
| 20260902222626 | 80 | 187 | 2.0 | 7.0 | 0.00 | 0.00 | 0.00 | 54 | 1015.1 |
| 20260902221726 | 79 | 212 | 2.0 | 6.0 | 0.00 | 0.00 | 0.00 | 53 | 1015.0 |
| 20260902220826 | 79 | 205 | 3.0 | 7.0 | 0.00 | 0.00 | 0.00 | 54 | 1015.2 |
| 20260902215026 | 79 | 217 | 3.0 | 4.0 | 0.00 | 0.00 | 0.00 | 53 | 1015.3 |
| 20260902214126 | 79 | 214 | 2.0 | 9.0 | 0.00 | 0.00 | 0.00 | 54 | 1015.4 |
| 20260902213226 | 79 | 142 | 2.0 | 5.0 | 0.00 | 0.00 | 0.00 | 52 | 1015.5 |
| 20260902212326 | 79 | 191 | 2.0 | 6.0 | 0.00 | 0.00 | 0.00 | 52 | 1015.4 |
| 20260902211426 | 79 | 211 | 2.0 | 6.0 | 0.00 | 0.00 | 0.00 | 52 | 1015.4 |
| 20260902205626 | 78 | 219 | 2.0 | 9.0 | 0.00 | 0.00 | 0.00 | 54 | 1015.7 |
| 20260902204726 | 78 | 187 | 2.0 | 9.0 | 0.00 | 0.00 | 0.00 | 55 | 1015.7 |
| 20260902203826 | 77 | 186 | 2.0 | 8.0 | 0.00 | 0.00 | 0.00 | 56 | 1015.8 |
| 20260902202926 | 78 | 111 | 2.0 | 7.0 | 0.00 | 0.00 | 0.00 | 55 | 1015.9 |
| 20260902202026 | 79 | 185 | 2.0 | 9.0 | 0.00 | 0.00 | 0.00 | 53 | 1016.1 |
| 20260902201126 | 78 | 204 | 2.0 | 7.0 | 0.00 | 0.00 | 0.00 | 55 | 1016.4 |
| 20260902200226 | 76 | 226 | 2.0 | 5.0 | 0.00 | 0.00 | 0.00 | 59 | 1016.4 |
| 20260902193526 | 78 | 217 | 2.0 | 6.0 | 0.00 | 0.00 | 0.00 | 57 | 1016.5 |
| 20260902192626 | 78 | 207 | 2.0 | 5.0 | 0.00 | 0.00 | 0.00 | 56 | 1016.7 |
| 20260902190826 | 77 | 222 | 3.0 | 6.0 | 0.00 | 0.00 | 0.00 | 57 | 1017.0 |
| 20260902185926 | 77 | 221 | 3.0 | 6.0 | 0.00 | 0.00 | 0.00 | 57 | 1016.9 |
| 20260902185026 | 78 | 201 | 1.0 | 5.0 | 0.00 | 0.00 | 0.00 | 56 | 1016.9 |
| 20260902183226 | 77 | 214 | 2.0 | 5.0 | 0.00 | 0.00 | 0.00 | 57 | 1017.0 |
| 20260902181426 | 78 | 224 | 2.0 | 3.0 | 0.00 | 0.00 | 0.00 | 57 | 1017.1 |
| 20260902180526 | 77 | 239 | 2.0 | 5.0 | 0.00 | 0.00 | 0.00 | 58 | 1017.1 |
| 20260902174726 | 76 | 223 | 2.0 | 6.0 | 0.00 | 0.00 | 0.00 | 59 | 1017.0 |
| 20260902173826 | 75 | 213 | 1.0 | 5.0 | 0.00 | 0.00 | 0.00 | 61 | 1016.9 |
| 20260902172926 | 75 | 214 | 2.0 | 5.0 | 0.00 | 0.00 | 0.00 | 61 | 1017.0 |
| 20260902172026 | 75 | 166 | 2.0 | 5.0 | 0.00 | 0.00 | 0.00 | 62 | 1017.0 |
| 20260902171126 | 73 | 148 | 2.0 | 5.0 | 0.00 | 0.00 | 0.00 | 63 | 1016.9 |
| 20260902170226 | 74 | 218 | 2.0 | 5.0 | 0.00 | 0.00 | 0.00 | 63 | 1016.8 |
| 20260902165326 | 73 | 219 | 2.0 | 5.0 | 0.00 | 0.00 | 0.00 | 65 | 1016.8 |
| 20260902164426 | 72 | 164 | 1.0 | 3.0 | 0.00 | 0.00 | 0.00 | 66 | 1016.7 |
| 20260902163526 | 70 | 165 | 1.0 | 5.0 | 0.00 | 0.00 | 0.00 | 69 | 1016.6 |
| 20260902161726 | 69 | 119 | 1.0 | 4.0 | 0.00 | 0.00 | 0.00 | 71 | 1016.6 |
| 20260902160826 | 68 | 139 | 1.0 | 3.0 | 0.00 | 0.00 | 0.00 | 72 | 1016.7 |
| 20260902155026 | 67 | 105 | 1.0 | 3.0 | 0.00 | 0.00 | 0.00 | 74 | 1016.7 |
| 20260902154126 | 66 | 105 | 1.0 | 3.0 | 0.00 | 0.00 | 0.00 | 75 | 1016.7 |
| 20260902153226 | 65 | 100 | 1.0 | 3.0 | 0.00 | 0.00 | 0.00 | 77 | 1016.8 |
| 20260902151426 | 63 | 102 | 1.0 | 3.0 | 0.00 | 0.00 | 0.00 | 80 | 1016.6 |
| 20260902150526 | 62 | 92 | 0.0 | 3.0 | 0.00 | 0.00 | 0.00 | 81 | 1016.5 |
| 20260902145626 | 62 | 0 | 0.0 | 1.0 | 0.00 | 0.00 | 0.00 | 81 | 1016.5 |
| 20260902144726 | 62 | 104 | 0.0 | 1.0 | 0.00 | 0.00 | 0.00 | 81 | 1016.3 |
| 20260902142926 | 61 | 104 | 1.0 | 3.0 | 0.00 | 0.00 | 0.00 | 82 | 1016.1 |
| 20260902142026 | 61 | 107 | 1.0 | 3.0 | 0.00 | 0.00 | 0.00 | 82 | 1016.0 |
| 20260902140226 | 60 | 0 | 0.0 | 1.0 | 0.00 | 0.00 | 0.00 | 83 | 1016.3 |
| 20260902135326 | 60 | 0 | 0.0 | 4.0 | 0.00 | 0.00 | 0.00 | 83 | 1016.1 |
| 20260902133526 | 60 | 0 | 0.0 | 3.0 | 0.00 | 0.00 | 0.00 | 83 | 1015.9 |
| 20260902132626 | 60 | 108 | 0.0 | 2.0 | 0.00 | 0.00 | 0.00 | 83 | 1015.8 |
| 20260902131726 | 60 | 0 | 0.0 | 2.0 | 0.00 | 0.00 | 0.00 | 84 | 1015.8 |
| 20260902130826 | 60 | 0 | 0.0 | 1.0 | 0.00 | 0.00 | 0.00 | 83 | 1015.7 |
| 20260902125926 | 60 | 0 | 0.0 | 1.0 | 0.00 | 0.00 | 0.00 | 83 | 1015.7 |
| 20260902125026 | 60 | 0 | 0.0 | 2.0 | 0.00 | 0.00 | 0.00 | 83 | 1015.6 |
| 20260902124126 | 60 | 106 | 1.0 | 2.0 | 0.00 | 0.00 | 0.00 | 83 | 1015.6 |
| 20260902123226 | 60 | 106 | 1.0 | 3.0 | 0.00 | 0.00 | 0.00 | 83 | 1015.7 |
| 20260902122326 | 60 | 99 | 0.0 | 2.0 | 0.00 | 0.00 | 0.00 | 83 | 1015.6 |
| 20260902121426 | 60 | 0 | 0.0 | 2.0 | 0.00 | 0.00 | 0.00 | 83 | 1015.6 |
| 20260902120526 | 60 | 105 | 1.0 | 3.0 | 0.00 | 0.00 | 0.00 | 83 | 1015.6 |
| 20260902115626 | 60 | 107 | 0.0 | 4.0 | 0.00 | 0.00 | 0.00 | 83 | 1015.6 |
| 20260902113826 | 60 | 0 | 0.0 | 3.0 | 0.00 | 0.00 | 0.00 | 83 | 1015.6 |
| 20260902112926 | 60 | 106 | 1.0 | 2.0 | 0.00 | 0.00 | 0.00 | 83 | 1015.4 |
| 20260902112026 | 60 | 107 | 1.0 | 3.0 | 0.00 | 0.00 | 0.00 | 83 | 1015.3 |
| 20260902111126 | 60 | 105 | 1.0 | 4.0 | 0.00 | 0.00 | 0.00 | 83 | 1015.4 |
| 20260902110226 | 60 | 105 | 1.0 | 3.0 | 0.00 | 0.00 | 0.00 | 82 | 1015.5 |
| 20260902105326 | 60 | 110 | 0.0 | 3.0 | 0.00 | 0.00 | 0.00 | 82 | 1015.6 |
| 20260902103526 | 60 | 0 | 0.0 | 2.0 | 0.00 | 0.00 | 0.00 | 82 | 1015.7 |
| 20260902102626 | 60 | 118 | 0.0 | 2.0 | 0.00 | 0.00 | 0.00 | 81 | 1015.8 |
| 20260902101726 | 60 | 115 | 1.0 | 3.0 | 0.00 | 0.00 | 0.00 | 81 | 1015.8 |
| 20260902100826 | 61 | 105 | 1.0 | 5.0 | 0.00 | 0.00 | 0.00 | 81 | 1015.9 |
| 20260902095926 | 61 | 117 | 1.0 | 4.0 | 0.00 | 0.00 | 0.00 | 81 | 1015.8 |
| 20260902095026 | 60 | 111 | 1.0 | 3.0 | 0.00 | 0.00 | 0.00 | 81 | 1015.8 |
| 20260902094126 | 61 | 113 | 1.0 | 3.0 | 0.00 | 0.00 | 0.00 | 80 | 1015.9 |